Greenville, ME

4:11 AM EST on November 13, 2019 (GMT -0500)
Greenville

Weather History for KGNR - September, 2019

Change the Weather History Date:

Monday, September 16, 2019

  Actual Average (KMLT) Record (KMLT)
Temperature  
Mean Temperature 52 °F -  
Max Temperature 57 °F 66 °F 93 °F (1939)
Min Temperature 50 °F 44 °F 28 °F (1959)
Degree Days  
Heating Degree Days 12    
Growing Degree Days 2 (Base 50)    
Moisture  
Dew Point 47 °F    
Average Humidity 80    
Maximum Humidity 92    
Minimum Humidity 74    
Precipitation  
Precipitation 0.04 in - - ()
Sea Level Pressure  
Sea Level Pressure 29.99 in    
Wind  
Wind Speed 9 mph ()    
Max Wind Speed 17 mph    
Max Gust Speed 25 mph    
Averages and records for this station are not official NWS values.
T = Trace of Precipitation, MM = Missing Value Source: Averaged Metar Reports

Daily Weather History Graph

Daily Weather History Graph

Search for Another Location

Airport or City:

Astronomy

Sep. 16, 2019 Rise Set
Actual Time 6:17 AM EDT 6:47 PM EDT
Civil Twilight 5:47 AM EDT 7:17 PM EDT
Nautical Twilight 5:12 AM EDT 7:52 PM EDT
Astronomical Twilight 4:36 AM EDT 8:29 PM EDT
Moon 8:15 PM EDT (9/16) 8:25 AM EDT (9/16)
Length of Visible Light 13h 29m
Length of Day
12h 30m
Waning Gibbous, 94% of the Moon is Illuminated
Sep 16
Waning Gibbous
Sep 21
Last Quarter
Sep 28
New
Oct 5
First Quarter
Oct 13
Full

Hourly Weather History & Observations

Time (EDT) Temp. Dew Point Humidity Pressure Visibility Wind Dir Wind Speed Gust Speed Precip Events Conditions
12:56 AM 53.1 °F 46.0 °F 77% 29.98 in - NW 8.1 mph 19.6 mph N/A   Unknown
1:56 AM 52.0 °F 46.0 °F 80% 29.97 in - NW 10.4 mph - N/A   Unknown
2:56 AM 51.1 °F 46.0 °F 83% 29.96 in - NW 11.5 mph 18.4 mph N/A   Unknown
3:56 AM 51.1 °F 46.0 °F 83% 29.96 in - NW 12.7 mph 18.4 mph N/A   Unknown
4:56 AM 50.0 °F 45.0 °F 83% 29.97 in - NW 10.4 mph - N/A   Unknown
5:56 AM 50.0 °F 45.0 °F 83% 29.99 in - NW 6.9 mph 20.7 mph N/A   Unknown
6:56 AM 50.0 °F 44.1 °F 80% 29.99 in - WNW 12.7 mph 24.2 mph N/A   Unknown
7:56 AM 50.0 °F 43.0 °F 77% 30.00 in - NW 13.8 mph 24.2 mph N/A   Unknown
8:56 AM 52.0 °F 45.0 °F 77% 29.99 in - NW 10.4 mph 16.1 mph N/A   Unknown
9:56 AM 53.1 °F 45.0 °F 74% 29.99 in - NW 11.5 mph 19.6 mph N/A   Unknown
10:56 AM 53.1 °F 45.0 °F 74% 29.99 in - NW 12.7 mph 25.3 mph N/A   Unknown
11:56 AM 54.0 °F 46.9 °F 77% 29.97 in - NW 10.4 mph 17.3 mph N/A   Unknown
12:56 PM 55.0 °F 46.9 °F 74% 29.97 in - Variable 6.9 mph - N/A   Unknown
1:56 PM 55.0 °F 48.0 °F 77% 29.96 in - NW 6.9 mph - N/A   Unknown
3:56 PM 55.9 °F 48.0 °F 75% 29.96 in - NNW 9.2 mph - N/A   Unknown
4:56 PM 55.9 °F 48.0 °F 75% 29.98 in - NW 9.2 mph - N/A   Unknown
5:56 PM 54.0 °F 48.0 °F 80% 29.99 in - NW 17.3 mph 20.7 mph N/A   Unknown
6:56 PM 54.0 °F 48.0 °F 80% 30.00 in - WNW 6.9 mph - N/A   Unknown
7:56 PM 54.0 °F 48.9 °F 83% 30.01 in - NW 8.1 mph - N/A   Unknown
8:56 PM 54.0 °F 48.9 °F 83% 30.01 in - NW 9.2 mph - N/A   Unknown
9:56 PM 53.1 °F 48.9 °F 86% 30.02 in - NW 8.1 mph - N/A   Unknown
10:56 PM 53.1 °F 48.0 °F 83% 30.02 in - NNW 11.5 mph - N/A   Unknown
11:56 PM 51.1 °F 48.9 °F 92% 30.03 in - NW 8.1 mph - 0.04 in   Unknown